Location: Azul
(36.7830°S, 59.8500°W)
Time: 09:08:45
(UTC-03:00)

DOVE 4 - Pass Details

Date: 27 October 2021
Orbit: 588 x 799 km, 97.8° (Epoch: 07 December)

Event Time Altitude Azimuth Distance (km) Brightness Sun altitude
Exits shadow 01:37:14 11° 220° (SW) 2,356 ? -38.8°
Drops below altitude 10° 01:37:23 10° 219° (SW) 2,405 ? -38.8°
Sets 01:40:10 0° 206° (SSW) 3,341 ? -38.6°
